Location: Cella
(44.7333°N, 10.5667°E)
Time: 11:29:58
(UTC+00:00)

HJ-1C - Pass Details

Date: 03 March 2021
Orbit: 428 x 440 km, 97.1° (Epoch: 18 April)

Event Time Altitude Azimuth Distance (km) Brightness Sun altitude
Rises 18:29:59 0° 178° (S) 2,414 7.0 -15.3°
Reaches altitude 10° 18:32:02 10° 183° (S) 1,549 6.1 -15.7°
Maximum altitude 18:35:16 50° 260° (W) 566 4.3 -16.2°
Drops below altitude 10° 18:38:32 10° 338° (NNW) 1,556 6.5 -16.8°
Sets 18:40:36 0° 343° (NNW) 2,427 7.5 -17.2°
